VA3PC-13 Weather Reports


Display with metric or nautical units.
time (UTC)temp
F
wind
direction
speed
MPH
gust
MPH
rain 1hr
in
rain 24hr
in
rain mn
in
humidity
%
barometer
mb
20181215050516 32 246 3.0 5.0 0.00 0.27 0.00 100 1016.2
20181215045516 32 236 4.0 7.0 0.00 0.27 0.27 100 1015.9
20181215044516 33 230 5.0 8.0 0.00 0.27 0.27 100 1015.8
20181215043516 33 228 5.0 8.0 0.00 0.27 0.27 100 1015.7
20181215042516 33 226 5.0 8.0 0.00 0.27 0.27 100 1015.7
20181215041517 33 237 6.0 10.0 0.00 0.27 0.27 100 1015.7
20181215040516 33 231 5.0 10.0 0.00 0.27 0.27 100 1015.7
20181215035516 33 234 5.0 11.0 0.00 0.27 0.27 100 1015.6
20181215034516 33 235 5.0 10.0 0.00 0.27 0.27 100 1015.6
20181215033516 34 230 5.0 8.0 0.00 0.27 0.27 100 1015.5
20181215032516 34 243 4.0 7.0 0.01 0.27 0.27 100 1015.7
20181215031516 34 248 5.0 8.0 0.01 0.27 0.27 100 1016.0
20181215030516 34 248 5.0 10.0 0.01 0.27 0.27 100 1015.9
20181215025517 34 242 4.0 8.0 0.01 0.27 0.27 100 1015.9
20181215024516 34 237 5.0 10.0 0.01 0.27 0.27 100 1015.9
20181215023516 34 244 4.0 8.0 0.01 0.27 0.27 100 1015.9
20181215022516 34 238 5.0 9.0 0.00 0.26 0.26 100 1015.8
20181215021516 34 226 4.0 9.0 0.00 0.26 0.26 100 1015.6
20181215020516 34 230 5.0 10.0 0.00 0.26 0.26 100 1015.7
20181215015517 34 234 6.0 13.0 0.00 0.26 0.26 100 1015.8
20181215014536 34 227 5.0 11.0 0.00 0.26 0.26 100 1015.8
20181215013517 34 232 6.0 10.0 0.00 0.26 0.26 100 1016.1
20181215012516 34 239 5.0 12.0 0.01 0.26 0.26 100 1016.2
20181215011516 34 243 5.0 10.0 0.01 0.26 0.26 100 1016.2
20181215010517 33 238 5.0 9.0 0.01 0.26 0.26 100 1016.2
20181215005516 33 229 4.0 9.0 0.01 0.26 0.26 100 1016.1
20181215004516 33 211 4.0 6.0 0.01 0.26 0.26 100 1015.9
20181215003516 33 220 4.0 7.0 0.02 0.26 0.26 100 1015.9
20181215002516 33 212 6.0 9.0 0.01 0.25 0.25 100 1015.9
20181215001516 33 204 3.0 5.0 0.01 0.25 0.25 100 1016.0
20181215000516 33 205 4.0 9.0 0.01 0.25 0.25 100 1015.9
20181214235516 33 226 4.0 7.0 0.01 0.25 0.25 100 1016.3
20181214234517 33 202 5.0 9.0 0.02 0.25 0.25 100 1016.2
20181214233516 33 208 4.0 6.0 0.01 0.24 0.24 100 1016.2
20181214232516 33 220 3.0 6.0 0.01 0.24 0.24 100 1016.2
20181214231516 33 203 6.0 10.0 0.01 0.24 0.24 100 1015.9
20181214230516 33 201 6.0 12.0 0.01 0.24 0.24 100 1015.9
20181214225516 33 200 5.0 8.0 0.01 0.24 0.24 100 1016.1
20181214224516 33 204 5.0 8.0 0.01 0.23 0.23 100 1016.1
20181214223516 33 207 5.0 12.0 0.01 0.23 0.23 100 1016.4
20181214222517 33 223 6.0 11.0 0.01 0.23 0.23 100 1016.7
20181214221516 33 226 5.0 9.0 0.02 0.22 0.22 100 1016.8
20181214220516 33 235 6.0 11.0 0.02 0.22 0.22 100 1016.7
20181214215517 33 228 7.0 12.0 0.03 0.22 0.22 100 1016.7
20181214214516 33 223 8.0 12.0 0.02 0.21 0.21 100 1016.7
20181214213516 33 226 8.0 20.0 0.03 0.21 0.21 100 1016.8
20181214212516 33 217 6.0 12.0 0.03 0.21 0.21 100 1016.7
20181214211516 33 223 4.0 6.0 0.03 0.20 0.20 100 1016.6
20181214210517 34 231 5.0 10.0 0.04 0.20 0.20 100 1016.8
20181214205516 34 231 5.0 8.0 0.03 0.19 0.19 100 1016.7
20181214204516 34 233 5.0 11.0 0.04 0.19 0.19 100 1016.7
20181214203517 34 229 4.0 7.0 0.03 0.18 0.18 100 1016.7
20181214202517 33 222 5.0 11.0 0.03 0.18 0.18 99 1016.6
20181214201516 33 230 6.0 9.0 0.04 0.17 0.17 99 1016.6
20181214200517 34 214 4.0 8.0 0.04 0.16 0.16 99 1016.5
20181214195517 34 223 4.0 8.0 0.04 0.16 0.16 99 1016.5
20181214194516 34 225 4.0 10.0 0.04 0.15 0.15 99 1016.3
20181214193517 34 220 5.0 9.0 0.05 0.14 0.14 99 1016.2
20181214192516 34 212 5.0 9.0 0.06 0.14 0.14 99 1016.2
20181214191517 34 216 6.0 12.0 0.06 0.13 0.13 99 1016.3
20181214190516 33 209 4.0 9.0 0.06 0.12 0.12 99 1016.3
20181214185516 33 219 5.0 8.0 0.07 0.11 0.11 99 1016.3
20181214184517 33 220 7.0 10.0 0.07 0.10 0.10 99 1016.5
20181214183516 33 221 5.0 9.0 0.06 0.09 0.09 99 1016.5
20181214182516 33 222 4.0 9.0 0.07 0.08 0.08 99 1016.5
20181214181516 33 224 4.0 8.0 0.07 0.07 0.07 99 1016.6
20181214180516 33 218 4.0 8.0 0.06 0.06 0.06 99 1016.5
20181214175516 33 219 3.0 6.0 0.04 0.04 0.04 99 1016.5
20181214174517 33 217 5.0 9.0 0.03 0.03 0.03 98 1016.6
20181214173516 33 218 6.0 9.0 0.02 0.02 0.02 99 1016.7
20181214172517 33 214 4.0 6.0 0.01 0.01 0.01 98 1016.8
20181214171517 33 212 4.0 9.0 0.00 0.00 0.00 98 1016.9
20181214170516 33 216 4.0 6.0 0.00 0.00 0.00 98 1017.2
20181214165518 32 210 4.0 6.0 0.00 0.00 0.00 98 1017.2
20181214164516 32 191 5.0 10.0 0.00 0.00 0.00 98 1017.4
20181214163516 32 210 5.0 8.0 0.00 0.00 0.00 98 1017.7
20181214162516 32 202 4.0 8.0 0.00 0.00 0.00 98 1017.9
20181214161518 32 208 5.0 8.0 0.00 0.00 0.00 98 1018.2
20181214160517 32 214 3.0 7.0 0.00 0.00 0.00 98 1018.3
20181214155521 32 198 4.0 7.0 0.00 0.00 0.00 98 1018.5
20181214154516 32 210 3.0 6.0 0.00 0.00 0.00 98 1018.8
20181214153517 32 205 3.0 6.0 0.00 0.00 0.00 98 1018.8
20181214152516 32 198 3.0 5.0 0.00 0.00 0.00 98 1018.8
20181214151516 32 206 3.0 6.0 0.00 0.00 0.00 98 1019.0
20181214150516 32 202 2.0 4.0 0.00 0.00 0.00 98 1019.0
20181214145516 32 201 2.0 5.0 0.00 0.00 0.00 98 1019.0
20181214144517 32 213 2.0 5.0 0.00 0.00 0.00 98 1019.1
20181214143516 32 212 2.0 4.0 0.00 0.00 0.00 98 1019.2
20181214142516 32 213 1.0 3.0 0.00 0.00 0.00 98 1019.2
20181214141517 31 208 2.0 4.0 0.00 0.00 0.00 98 1019.3
20181214140516 31 208 1.0 3.0 0.00 0.00 0.00 97 1019.2
20181214135516 31 197 1.0 3.0 0.00 0.00 0.00 97 1019.1
20181214134516 31 188 1.0 3.0 0.00 0.00 0.00 97 1019.0
20181214133516 31 209 2.0 4.0 0.00 0.00 0.00 97 1018.8
20181214132517 31 193 2.0 5.0 0.00 0.00 0.00 97 1018.7
20181214131517 31 193 2.0 4.0 0.00 0.00 0.00 97 1018.7
20181214130516 31 182 2.0 4.0 0.00 0.00 0.00 97 1018.6
20181214125517 31 191 2.0 6.0 0.00 0.00 0.00 97 1018.7
20181214124516 31 186 4.0 6.0 0.00 0.00 0.00 97 1018.9
20181214123516 31 191 4.0 6.0 0.00 0.00 0.00 97 1019.0
20181214122516 31 188 5.0 8.0 0.00 0.00 0.00 97 1019.1
20181214121516 30 183 4.0 7.0 0.00 0.00 0.00 97 1019.3
20181214120516 30 189 4.0 7.0 0.00 0.00 0.00 97 1019.5
20181214115517 30 205 3.0 6.0 0.00 0.00 0.00 96 1019.5
20181214114516 30 185 4.0 6.0 0.00 0.00 0.00 96 1019.1
20181214113517 30 186 4.0 6.0 0.00 0.00 0.00 96 1019.2
20181214112516 30 180 4.0 6.0 0.00 0.00 0.00 96 1019.2
20181214111516 30 172 2.0 4.0 0.00 0.00 0.00 96 1019.2
20181214110517 30 180 3.0 5.0 0.00 0.00 0.00 96 1019.3
20181214105516 30 177 3.0 5.0 0.00 0.00 0.00 96 1019.2
20181214104516 30 178 3.0 4.0 0.00 0.00 0.00 96 1019.1
20181214103516 29 176 2.0 4.0 0.00 0.00 0.00 96 1019.2
20181214102516 29 187 2.0 4.0 0.00 0.00 0.00 96 1019.3
20181214101516 29 201 2.0 4.0 0.00 0.00 0.00 96 1019.2
20181214100517 29 190 2.0 4.0 0.00 0.00 0.00 96 1019.3
20181214095516 29 189 3.0 6.0 0.00 0.00 0.00 96 1019.4
20181214094517 29 196 3.0 6.0 0.00 0.00 0.00 96 1019.4
20181214093521 28 191 3.0 5.0 0.00 0.00 0.00 96 1019.3
20181214092516 28 179 2.0 5.0 0.00 0.00 0.00 95 1019.3
20181214090516 28 181 3.0 5.0 0.00 0.00 0.00 95 1019.3
20181214085516 27 184 3.0 5.0 0.00 0.00 0.00 94 1019.6
20181214084521 27 186 3.0 6.0 0.00 0.00 0.00 94 1019.5
20181214083516 27 186 3.0 4.0 0.00 0.00 0.00 94 1019.6
20181214082516 27 180 2.0 5.0 0.00 0.00 0.00 94 1019.9
20181214081516 27 188 2.0 3.0 0.00 0.00 0.00 94 1019.9
20181214080516 27 180 2.0 4.0 0.00 0.00 0.00 94 1020.0
20181214075516 26 184 1.0 2.0 0.00 0.00 0.00 93 1020.1
20181214074516 26 208 1.0 2.0 0.00 0.00 0.00 93 1020.0
20181214073516 26 218 2.0 5.0 0.00 0.00 0.00 93 1020.0
20181214072516 26 222 3.0 5.0 0.00 0.00 0.00 93 1020.0
20181214071516 26 178 1.0 2.0 0.00 0.00 0.00 93 1019.7
20181214070517 26 155 2.0 2.0 0.00 0.00 0.00 93 1019.5
20181214065516 26 148 1.0 2.0 0.00 0.00 0.00 93 1019.5
20181214064516 26 136 1.0 2.0 0.00 0.00 0.00 93 1019.3
20181214063518 26 117 0.0 2.0 0.00 0.00 0.00 93 1019.3
20181214062516 26 99 1.0 2.0 0.00 0.00 0.00 93 1019.5
20181214061516 26 121 1.0 2.0 0.00 0.00 0.00 93 1019.6
20181214060517 26 110 1.0 2.0 0.00 0.00 0.00 92 1019.8
20181214055516 26 131 1.0 2.0 0.00 0.00 0.00 92 1020.1
20181214054517 26 98 1.0 3.0 0.00 0.00 0.00 93 1020.1
20181214053516 25 91 1.0 2.0 0.00 0.00 0.00 92 1020.3
20181214052516 25 103 0.0 1.0 0.00 0.00 0.00 92 1020.6
20181214051517 25 130 1.0 2.0 0.00 0.00 0.00 92 1020.8